Date String (YYYY-MM-DD hh:mm:ss) UTC,Instrument flags,Ambient pressure (hPa),Sample flow (lpm),Bypass flow (lpm),Sample temperature (°C),Ambient temperature (°C),ASC tube jacket temperature (°C),LED temperature (°C),Box temperature (°C),Sample RH (%),Span deviation,Mass concentration (μg/m³),Mass concentration (μg/m³),Mass concentration (μg/m³)
DateTimeUTC,F1_M11,P_M11,Q1_M11,Q2_M11,T1_M11,T2_M11,T3_M11,T4_M11,T5_M11,U1_M11,ZSPAN_M11,X2_M11,X0_M11,X1_M11
2021-11-04 17:00:00,,0828.9,5.00,0.00,26.9,26.2,00.0,35.7,28.8,15.6,0000.9,0004.14,0007.71,0003.80
2021-11-04 17:01:00,,0828.9,5.01,0.00,26.9,26.2,00.0,35.7,28.8,15.5,0001.2,0004.14,0008.08,0003.80
2021-11-04 17:02:00,,0828.9,5.00,0.00,26.9,26.2,00.0,35.8,28.9,15.4,0001.4,0004.13,0008.31,0003.79
2021-11-04 17:03:00,,0828.9,5.00,0.00,27.0,26.2,00.0,35.8,28.9,15.5,0001.5,0004.12,0008.39,0003.78
2021-11-04 17:04:00,,0828.9,5.01,0.00,27.0,26.3,00.0,35.8,28.9,15.3,0000.7,0004.11,0008.36,0003.77
2021-11-04 17:05:00,,0828.9,4.99,0.00,27.0,26.3,00.0,35.8,28.9,15.4,0000.6,0004.15,0008.51,0003.78
2021-11-04 17:06:00,,0828.9,4.99,0.00,27.0,26.3,00.0,35.9,28.9,15.6,0001.8,0004.14,0008.42,0003.78
2021-11-04 17:07:00,,0829.3,5.01,0.00,27.0,26.3,00.0,35.9,29.0,15.9,0002.2,0004.14,0008.43,0003.78
2021-11-04 17:08:00,,0829.4,4.99,0.00,27.1,26.4,00.0,35.9,29.0,15.9,0002.3,0004.19,0008.58,0003.80
2021-11-04 17:09:00,,0829.3,5.00,0.00,27.1,26.4,00.0,35.9,29.0,16.2,0002.6,0004.25,0009.10,0003.84
2021-11-04 17:10:00,,0829.1,4.99,0.00,27.1,26.4,00.0,35.9,29.0,15.8,0002.2,0004.26,0009.00,0003.85
2021-11-04 17:11:00,,0829.4,5.01,0.00,27.1,26.4,00.0,36.0,29.0,15.7,0001.8,0004.26,0008.97,0003.87
2021-11-04 17:12:00,,0829.2,5.01,0.00,27.1,26.5,00.0,36.0,29.1,15.6,0001.8,0004.30,0008.55,0003.88
2021-11-04 17:13:00,,0828.9,4.99,0.00,27.2,26.5,00.0,36.0,29.1,15.5,0001.9,0004.32,0008.39,0003.90
2021-11-04 17:14:00,,0829.3,5.00,0.00,27.2,26.5,00.0,36.0,29.1,15.1,0001.9,0004.34,0009.06,0003.90
2021-11-04 17:15:00,,0829.1,4.99,0.00,27.2,26.5,00.0,36.1,29.1,15.4,0002.3,0004.35,0009.11,0003.91
2021-11-04 17:16:00,,0829.4,5.00,0.00,27.2,26.5,00.0,36.1,29.2,15.4,0001.9,0004.36,0009.12,0003.92
2021-11-04 17:17:00,,0829.2,5.01,0.00,27.3,26.6,00.0,36.1,29.2,15.5,0001.5,0004.38,0009.17,0003.93
2021-11-04 17:18:00,,0829.3,5.00,0.00,27.3,26.6,00.0,36.1,29.2,15.3,0001.4,0004.40,0009.17,0003.95
2021-11-04 17:19:00,,0829.3,4.99,0.00,27.3,26.6,00.0,36.1,29.2,15.3,0001.8,0004.40,0009.08,0003.97
2021-11-04 17:20:00,,0829.3,5.01,0.00,27.3,26.6,00.0,36.2,29.2,15.2,0001.6,0004.38,0008.67,0003.97
2021-11-04 17:21:00,,0829.3,4.98,0.00,27.3,26.7,00.0,36.2,29.3,15.0,0001.8,0004.42,0010.61,0003.98
2021-11-04 17:22:00,,0829.2,5.01,0.00,27.4,26.7,00.0,36.2,29.3,15.0,0002.6,0004.47,0011.21,0004.00
2021-11-04 17:23:00,,0829.3,5.00,0.00,27.4,26.7,00.0,36.2,29.3,15.0,0002.5,0004.46,0011.45,0004.00
2021-11-04 17:24:00,,0828.7,4.99,0.00,27.4,26.7,00.0,36.2,29.3,14.8,0002.2,0004.46,0011.58,0003.99
2021-11-04 17:25:00,,0828.7,5.01,0.00,27.4,26.8,00.0,36.3,29.4,14.8,0002.3,0004.50,0011.19,0003.99
2021-11-04 17:26:00,,0828.7,4.98,0.00,27.5,26.8,00.0,36.3,29.4,14.7,0002.3,0004.51,0011.26,0003.98
2021-11-04 17:27:00,,0828.7,5.00,0.00,27.5,26.8,00.0,36.3,29.4,14.6,0002.6,0004.50,0011.81,0003.96
2021-11-04 17:28:00,,0828.7,5.00,0.00,27.5,26.8,00.0,36.3,29.4,14.4,0002.6,0004.48,0011.79,0003.94
2021-11-04 17:29:00,,0828.7,4.99,0.00,27.5,26.8,00.0,36.4,29.4,14.2,0002.2,0004.45,0012.33,0003.90
2021-11-04 17:30:00,,0829.1,5.01,0.00,27.5,26.9,00.0,36.4,29.4,14.2,0002.5,0004.42,0012.52,0003.85
2021-11-04 17:31:00,,0829.2,5.01,0.00,27.6,26.9,00.0,36.4,29.5,14.3,0002.6,0004.39,0012.73,0003.82
2021-11-04 17:32:00,,0829.0,4.99,0.00,27.6,26.9,00.0,36.4,29.5,14.3,0002.2,0004.36,0011.02,0003.80
2021-11-04 17:33:00,,0828.6,5.00,0.00,27.6,26.9,00.0,36.4,29.5,14.4,0001.0,0004.37,0011.88,0003.78
2021-11-04 17:34:00,,0828.6,4.99,0.00,27.6,26.9,00.0,36.5,29.5,14.6,0001.4,0004.40,0012.35,0003.79
2021-11-04 17:35:00,,0828.6,5.01,0.00,27.6,26.9,00.0,36.5,29.5,14.6,0001.4,0004.43,0012.35,0003.80
2021-11-04 17:36:00,,0828.7,5.00,0.00,27.7,26.9,00.0,36.5,29.6,14.5,0002.0,0004.43,0012.14,0003.84
2021-11-04 17:37:00,,0828.6,5.01,0.00,27.7,27.0,00.0,36.5,29.6,14.5,0001.4,0004.48,0012.99,0003.89
2021-11-04 17:38:00,,0828.7,4.99,0.00,27.7,27.0,00.0,36.5,29.6,14.5,0001.4,0004.55,0012.49,0003.92
2021-11-04 17:39:00,,0828.8,5.00,0.00,27.7,27.0,00.0,36.6,29.6,14.6,0001.5,0004.58,0013.06,0003.96
2021-11-04 17:40:00,,0828.6,4.99,0.00,27.7,27.0,00.0,36.6,29.6,14.6,0001.6,0004.62,0013.04,0003.98
2021-11-04 17:41:00,,0828.6,5.00,0.00,27.7,27.1,00.0,36.6,29.6,14.7,0001.8,0004.68,0013.28,0004.03
2021-11-04 17:42:00,,0828.8,5.01,0.00,27.8,27.1,00.0,36.6,29.6,14.6,0002.1,0004.73,0013.01,0004.09
2021-11-04 17:43:00,,0829.0,4.99,0.00,27.8,27.1,00.0,36.6,29.7,14.8,0002.8,0004.78,0012.90,0004.14
2021-11-04 17:44:00,,0828.6,5.01,0.00,27.8,27.1,00.0,36.7,29.7,14.7,0003.0,0004.77,0011.68,0004.18
2021-11-04 17:45:00,,0828.6,4.99,0.00,27.8,27.1,00.0,36.7,29.7,14.6,0002.6,0004.80,0011.50,0004.22
2021-11-04 17:46:00,,0828.6,5.01,0.00,27.8,27.2,00.0,36.7,29.8,14.5,0002.7,0004.82,0011.50,0004.25
2021-11-04 17:47:00,,0828.8,4.99,0.00,27.9,27.2,00.0,36.7,29.8,14.4,0002.0,0004.81,0011.58,0004.25
2021-11-04 17:48:00,,0829.0,5.01,0.00,27.9,27.2,00.0,36.7,29.8,14.4,0002.0,0004.79,0011.36,0004.24
2021-11-04 17:49:00,,0829.0,5.00,0.00,27.9,27.2,00.0,36.8,29.8,14.5,0001.9,0004.80,0011.64,0004.26
2021-11-04 17:50:00,,0829.0,4.98,0.00,27.9,27.2,00.0,36.8,29.8,14.8,0001.9,0004.83,0011.51,0004.27
2021-11-04 17:51:00,,0829.0,5.00,0.00,28.0,27.3,00.0,36.8,29.9,14.6,0002.2,0004.86,0011.53,0004.29
2021-11-04 17:52:00,,0828.9,5.00,0.00,28.0,27.3,00.0,36.8,29.9,14.7,0002.2,0004.88,0011.21,0004.29
2021-11-04 17:53:00,,0828.8,5.01,0.00,28.0,27.3,00.0,36.8,29.9,14.7,0002.4,0004.86,0010.91,0004.29
2021-11-04 17:54:00,,0828.7,5.00,0.00,28.0,27.4,00.0,36.9,29.9,14.5,0002.0,0004.84,0010.94,0004.29
2021-11-04 17:55:00,,0828.7,5.01,0.00,28.0,27.4,00.0,36.9,29.9,14.4,0002.1,0004.85,0011.79,0004.28
2021-11-04 17:56:00,,0828.6,5.00,0.00,28.1,27.4,00.0,36.9,30.0,14.6,0002.5,0004.83,0011.92,0004.25
2021-11-04 17:57:00,,0828.5,4.99,0.00,28.1,27.4,00.0,36.9,30.0,14.3,0002.7,0004.82,0011.91,0004.22
2021-11-04 17:58:00,,0828.5,5.00,0.00,28.1,27.4,00.0,37.0,30.0,14.3,0003.0,0004.77,0011.68,0004.19
2021-11-04 17:59:00,,0828.5,4.99,0.00,28.1,27.4,00.0,37.0,30.0,14.4,0003.3,0004.82,0011.91,0004.18
